FW2134 Weather Reports


Display with metric or nautical units.
time (UTC)temp
F
wind
direction
speed
MPH
gust
MPH
rain 1hr
in
rain 24hr
in
rain mn
in
humidity
%
barometer
mb
20260510201547 65 31 3.0 0.0 0.00 0.00 0.01 78 1011.4
20260510200112 67 24 1.0 0.0 0.00 0.00 0.01 75 1011.6
20260510194554 68 47 3.0 0.0 0.00 0.00 0.01 73 1011.6
20260510193056 69 14 2.0 0.0 0.00 0.00 0.01 72 1011.7
20260510191554 68 58 3.0 0.0 0.00 0.00 0.01 73 1011.8
20260510190044 69 20 3.0 0.0 0.00 0.00 0.01 70 1011.5
20260510184544 72 51 2.0 0.0 0.00 0.00 0.01 66 1011.7
20260510183053 72 56 2.0 0.0 0.00 0.00 0.01 67 1011.8
20260510181544 73 71 2.0 0.0 0.00 0.00 0.01 68 1011.9
20260510180043 73 38 2.0 0.0 0.00 0.00 0.01 68 1011.8
20260510174544 71 102 2.0 0.0 0.00 0.00 0.01 68 1011.7
20260510173046 70 117 2.0 0.0 0.00 0.00 0.01 68 1011.8
20260510171542 68 222 0.0 0.0 0.00 0.00 0.01 73 1011.9
20260510170032 66 164 3.0 0.0 0.00 0.00 0.01 74 1012.0
20260510164527 64 124 0.0 0.0 0.00 0.00 0.01 83 1012.3
20260510163025 62 124 1.0 0.0 0.00 0.00 0.01 87 1012.4
20260510161521 61 34 2.0 0.0 0.00 0.00 0.01 92 1012.5
20260510160024 59 126 1.0 0.0 0.00 0.00 0.01 95 1012.5
20260510154513 58 133 1.0 0.0 0.00 0.00 0.01 96 1012.7
20260510153010 58 134 1.0 0.0 0.00 0.00 0.01 97 1012.6
20260510151511 57 128 0.0 0.0 0.00 0.00 0.01 97 1012.7
20260510150010 56 106 1.0 0.0 0.00 0.00 0.01 98 1012.7
20260510144524 56 61 0.0 0.0 0.00 0.00 0.01 98 1012.6
20260510143008 55 61 1.0 0.0 0.00 0.00 0.01 98 1012.5
20260510141505 54 52 0.0 0.0 0.00 0.00 0.01 98 1012.5
20260510140005 54 52 1.0 0.0 0.00 0.00 0.01 97 1012.5
20260510134507 54 52 0.0 0.0 0.00 0.00 0.01 98 1012.4
20260510133003 54 24 0.0 0.0 0.00 0.00 0.01 98 1012.5
20260510131503 54 24 0.0 0.0 0.00 0.00 0.01 97 1012.0
20260510130001 54 24 0.0 0.0 0.00 0.00 0.01 97 1011.9
20260510124601 54 343 0.0 0.0 0.00 0.00 0.01 97 1011.8
20260510124506 54 343 0.0 0.0 0.00 0.00 0.01 97 1011.8
20260510123119 53 343 0.0 0.0 0.00 0.00 0.01 97 1011.8
20260510121600 53 343 0.0 0.0 0.00 0.00 0.01 97 1011.6
20260510121502 54 343 0.0 0.0 0.00 0.00 0.01 97 1011.6
20260510120059 53 343 0.0 0.0 0.00 0.00 0.01 98 1011.5
20260510114602 53 343 0.0 0.0 0.00 0.00 0.01 97 1011.4
20260510113100 53 343 0.0 0.0 0.00 0.00 0.01 97 1011.3
20260510111602 53 343 0.0 0.0 0.00 0.00 0.01 97 1010.9
20260510111502 53 343 0.0 0.0 0.00 0.00 0.01 97 1010.9
20260510110058 53 326 0.0 0.0 0.00 0.00 0.01 97 1010.7
20260510104557 53 326 0.0 0.0 0.00 0.00 0.01 97 1010.9
20260510103058 52 326 0.0 0.0 0.00 0.00 0.01 97 1010.8
20260510101554 52 326 0.0 0.0 0.00 0.00 0.01 97 1010.8
20260510100052 52 326 0.0 0.0 0.00 0.00 0.01 97 1010.8
20260510094552 52 326 1.0 0.0 0.00 0.00 0.01 97 1010.9
20260510093049 52 357 1.0 0.0 0.00 0.00 0.01 97 1011.0
20260510091549 52 107 1.0 0.0 0.00 0.00 0.01 97 1011.1
20260510090042 52 305 1.0 0.0 0.00 0.00 0.01 97 1010.9
20260510084538 52 309 1.0 0.0 0.00 0.00 0.01 97 1010.5
20260510083033 52 240 0.0 0.0 0.00 0.00 0.00 96 1010.5
20260510081538 51 239 0.0 0.0 0.00 0.00 0.00 96 1010.4
20260510080028 51 209 0.0 0.0 0.00 0.00 0.00 96 1010.3
20260510074525 51 207 0.0 0.0 0.00 0.00 0.00 96 1010.2
20260510073030 50 207 1.0 0.0 0.00 0.00 0.00 96 1010.3
20260510071519 49 207 0.0 0.0 0.00 0.00 0.00 96 1010.3
20260510070017 48 167 0.0 0.0 0.00 0.00 0.00 96 1010.0
20260510064519 47 167 0.0 0.0 0.00 0.00 0.00 95 1009.9
20260510063015 47 167 0.0 0.0 0.00 0.00 0.00 95 1009.9
20260510061515 47 167 0.0 0.0 0.00 0.00 0.00 95 1009.9
20260510060019 47 167 0.0 0.0 0.00 0.00 0.00 95 1010.0
20260510054514 47 167 0.0 0.0 0.00 0.00 0.00 94 1010.1
20260510053014 48 167 0.0 0.0 0.00 0.00 0.00 94 1010.1
20260510051512 48 167 0.0 0.0 0.00 0.00 0.00 94 1010.2
20260510050011 48 167 0.0 0.0 0.00 0.00 0.00 94 1010.3
20260510044509 48 167 0.0 0.0 0.00 0.00 0.00 94 1010.4
20260510043008 49 167 0.0 0.0 0.00 0.00 0.00 94 1010.3
20260510041507 49 167 0.0 0.0 0.00 0.00 0.00 94 1010.2
20260510040004 49 167 0.0 0.0 0.00 0.00 0.12 93 1010.0
20260510034503 50 167 0.0 0.0 0.00 0.00 0.12 93 1010.0
20260510033001 50 167 0.0 0.0 0.00 0.00 0.12 93 1010.0
20260510031505 50 167 0.0 0.0 0.00 0.00 0.12 93 1009.9
20260510024559 51 165 0.0 0.0 0.00 0.00 0.12 93 1010.0
20260510023059 51 167 0.0 0.0 0.00 0.00 0.12 93 1009.9
20260510021502 51 167 0.0 0.0 0.00 0.00 0.12 92 1009.9
20260510020013 51 167 0.0 0.0 0.00 0.00 0.12 92 1009.9
20260510014618 52 167 0.0 0.0 0.00 0.00 0.12 92 1009.9
20260510013103 52 167 0.0 0.0 0.00 0.00 0.12 92 1009.8
20260510011558 52 167 0.0 0.0 0.00 0.00 0.12 92 1009.6
20260510010057 53 167 0.0 0.0 0.00 0.00 0.12 92 1009.4
20260510004557 53 178 0.0 0.0 0.00 0.00 0.12 91 1009.4
20260510003103 53 178 0.0 0.0 0.00 0.00 0.12 91 1009.4
20260510001557 54 178 0.0 0.0 0.00 0.00 0.12 90 1009.3
20260510000058 55 178 0.0 0.0 0.00 0.00 0.12 90 1009.3
20260509234556 55 178 0.0 0.0 0.00 0.00 0.12 91 1009.1
20260509233056 55 178 0.0 0.0 0.00 0.00 0.12 90 1009.1
20260509231557 56 178 0.0 0.0 0.00 0.00 0.12 90 1009.2
20260509230057 56 178 0.0 0.0 0.00 0.00 0.12 90 1009.4
20260509224600 56 178 0.0 0.0 0.00 0.00 0.12 88 1009.5
20260509223059 56 185 0.0 0.0 0.00 0.00 0.12 88 1009.7
20260509221604 56 188 0.0 0.0 0.00 0.00 0.11 85 1010.1
20260509220054 57 188 0.0 0.0 0.00 0.00 0.08 83 1009.8
20260509214558 57 188 1.0 0.0 0.00 0.00 0.07 81 1009.9
20260509213052 58 275 1.0 0.0 0.00 0.00 0.04 79 1009.4
20260509211558 58 241 1.0 0.0 0.00 0.00 0.04 79 1009.8
20260509210112 58 220 1.0 0.0 0.00 0.00 0.04 80 1009.7
20260509204557 57 224 1.0 0.0 0.00 0.00 0.04 81 1009.9
20260509203051 57 209 4.0 0.0 0.00 0.00 0.04 83 1009.9